User: anonymous   Login
Location: Borz?cin
(51.1714°N, 19.6030°E)
Time: 10:30:29
(UTC+00:00)
Language:

Cosmos 1470 - Orbit

View from above orbital plane
View from above orbital plane
View from above satellite
View from above satellite

Ground track
Ground track

The orbit data is extracted from the following two-line orbital elements,

1 14147U 83061A   25193.84881198  .00008021  00000-0  23124-3 0  9998
2 14147  82.4722   3.7124 0010020 137.7412 222.4605 15.35496159 50834
Epoch (UTC): 12 July 2025 20:22:17
Eccentricity: 0.0010020
inclination: 82.4722°
perigee height: 452 km
apogee height: 466 km
right ascension of ascending node: 3.7124°
argument of perigee: 137.7412°
revolutions per day: 15.35496159
mean anomaly at epoch: 222.4605°
orbit number at epoch: 5083

The dashed part of the orbit path shows where the satellite is in the earth's shadow,  

DLR